Location: Rounton
(54.4000°N, 1.3500°W)
Time: 16:51:05
(UTC+00:00)

Vanguard 1 Rocket - Visible Passes

Search period start: 06 December 2021 00:00
Search period end: 16 December 2021 00:00
Orbit: 650 x 4226 km, 34.3° (Epoch: 04 December)

Date Brightness Start Highest point End Pass type
(mag) Time Alt. Az. Time Alt. Az. Time Alt. Az.
06 Dec 10.7 01:36:06 19° SE 01:36:06 19° SE 01:43:12 10° ESE visible
06 Dec 10.1 03:53:23 30° SSW 03:57:40 35° S 04:15:19 10° ESE visible
06 Dec 10.7 06:11:08 10° WSW 06:24:36 33° SSW 06:44:23 10° SE visible
07 Dec 10.3 02:46:08 29° SSE 02:46:08 29° SSE 03:00:23 10° ESE visible
07 Dec 10.3 05:03:24 21° SW 05:11:54 35° S 05:30:48 10° SE visible
07 Dec 11.0 07:26:01 10° WSW 07:39:11 25° SSW 07:56:34 10° SSE visible
08 Dec 10.7 01:38:53 19° SE 01:38:53 19° SE 01:45:11 10° ESE visible
08 Dec 10.1 03:56:10 30° SSW 03:59:38 34° S 04:16:31 10° ESE visible
08 Dec 10.7 06:13:56 10° WSW 06:26:26 29° SSW 06:44:38 10° SSE visible
09 Dec 10.2 02:48:54 29° SSE 02:48:54 29° SSE 03:01:51 10° ESE visible
09 Dec 10.3 05:06:12 20° SW 05:13:52 32° S 05:31:29 10° SE visible
09 Dec 11.0 07:29:28 10° WSW 07:40:52 20° SSW 07:55:37 10° S visible
10 Dec 10.7 01:41:40 18° SE 01:41:40 18° SE 01:47:01 10° ESE visible
10 Dec 10.1 03:58:56 30° SSW 04:01:42 32° S 04:17:33 10° SE visible
10 Dec 10.7 06:16:58 10° WSW 06:28:19 25° SSW 06:44:29 10° SSE visible
11 Dec 10.2 02:51:42 28° SSE 02:51:42 28° SSE 03:03:13 10° ESE visible
11 Dec 10.3 05:08:59 19° SW 05:15:54 28° SSW 05:31:54 10° SE visible
11 Dec 11.1 07:33:41 10° WSW 07:42:37 16° SW 07:53:37 10° S visible
12 Dec 10.7 01:44:27 17° SE 01:44:27 17° SE 01:48:45 10° ESE visible
12 Dec 10.1 04:01:45 28° SSW 04:03:49 29° S 04:18:24 10° SE visible
12 Dec 10.7 06:20:23 10° WSW 06:30:14 20° SSW 06:43:47 10° S visible
13 Dec 10.3 02:54:30 26° SSE 02:54:30 26° SSE 03:04:27 10° SE visible
13 Dec 10.4 05:11:47 18° SW 05:17:59 24° SSW 05:31:57 10° SSE visible
14 Dec 10.8 01:47:17 15° SE 01:47:17 15° SE 01:50:22 10° ESE visible
14 Dec 10.2 04:04:34 25° SSW 04:06:00 25° S 04:19:02 10° SE visible
14 Dec 10.8 06:24:28 10° WSW 06:32:13 16° SSW 06:42:10 10° S visible
15 Dec 10.4 02:57:22 23° SSE 02:57:22 23° SSE 03:05:33 10° SE visible
15 Dec 10.5 05:14:38 15° SW 05:20:07 19° SSW 05:31:30 10° SSE visible
